Location: Arleux
(50.3632°N, 2.8721°E)
Time: 08:00:29
(UTC+00:00)

Okean O Rocket - Pass Details

Date: 15 December 2019
Orbit: 624 x 644 km, 98.2° (Epoch: 28 January)

Event Time Altitude Azimuth Distance (km) Brightness Sun altitude
Rises 06:03:19 0° 10° (N) 2,938 4.9 -14.7°
Reaches altitude 10° 06:05:33 10° 6° (N) 2,028 4.1 -14.3°
Maximum altitude 06:09:51 53° 290° (WNW) 781 1.7 -13.7°
Drops below altitude 10° 06:14:08 10° 214° (SSW) 2,025 4.1 -13.0°
Sets 06:16:22 0° 209° (SSW) 2,932 4.9 -12.7°
